Weather History for Veracruz Airport, Mexico

Change the Weather History Date:

Tuesday, December 4, 2012

  Actual Average Record
Temperature  
Mean Temperature 74 °F -  
Max Temperature 82 °F 78 °F 87 °F (2002)
Min Temperature 66 °F 62 °F 59 °F (2008)
Cooling Degree Days 9    
Growing Degree Days 24 (Base 50)    
Moisture  
Dew Point 67 °F    
Average Humidity 77    
Maximum Humidity 94    
Minimum Humidity 62    
Precipitation  
Precipitation 0.00 in - - ()
Sea Level Pressure  
Sea Level Pressure 30.04 in    
Wind  
Wind Speed 3 mph ()    
Max Wind Speed 9 mph    
Max Gust Speed -    
Visibility 6.4 miles    
Events      
Averages and records for this station are not official NWS values.
T = Trace of Precipitation, MM = Missing Value Source: Averaged Metar Reports

Daily Weather History Graph

Daily Weather History Graph

Search for Another Location

Airport:

Trip Planner

Search our weather history database for the weather conditions in past years. The results will help you decide how hot, cold, wet, or windy it might be!

Date:

Astronomy

Dec. 04, 2012 Rise Set
Actual Time 6:44 AM CST 5:46 PM CST
Civil Twilight 6:20 AM CST 6:09 PM CST
Nautical Twilight 5:53 AM CST 6:37 PM CST
Astronomical Twilight 5:26 AM CST 7:04 PM CST
Moon 11:03 PM CST (12/4) 11:05 AM CST (12/4)
Length of Visible Light 11h 49m
Length of Day
11h 02m
Waning Gibbous, 69% of the Moon is Illuminated
Dec 4
Waning Gibbous
Dec 6
Last Quarter
Dec 13
New
Dec 19
First Quarter
Dec 28
Full

Hourly Weather History & Observations

Time (CST) Temp. Heat Index Dew Point Humidity Pressure Visibility Wind Dir Wind Speed Gust Speed Precip Events Conditions
5:18 AM 66.2 °F - 64.4 °F 94% 30.01 in 5.0 mi NW 3.5 mph - N/A   Partly Cloudy
5:52 AM 66.2 °F - 64.4 °F 94% 30.00 in 5.0 mi WNW 4.6 mph - N/A   Partly Cloudy
6:41 AM 66.2 °F - 64.4 °F 94% 30.03 in 5.0 mi NW 3.5 mph - N/A   Partly Cloudy
7:46 AM 68.0 °F - 64.4 °F 88% 30.06 in 5.0 mi WNW 3.5 mph - N/A   Scattered Clouds
8:53 AM 73.4 °F - 68.0 °F 83% 30.08 in 6.0 mi Calm Calm - N/A   Scattered Clouds
9:47 AM 80.6 °F 83.9 °F 69.8 °F 70% 30.10 in 7.0 mi Calm Calm - N/A   Scattered Clouds
10:45 AM 80.6 °F 83.9 °F 69.8 °F 70% 30.09 in 6.0 mi ENE 3.5 mph - N/A   Scattered Clouds
11:41 AM 80.6 °F 83.2 °F 68.0 °F 65% 30.05 in 6.0 mi East 3.5 mph - N/A   Scattered Clouds
12:46 PM 82.4 °F 85.4 °F 68.0 °F 62% 30.04 in 7.0 mi East 8.1 mph - N/A   Scattered Clouds
1:52 PM 82.4 °F 85.4 °F 68.0 °F 62% 30.02 in 7.0 mi SE 8.1 mph - N/A   Partly Cloudy
2:49 PM 82.4 °F 85.4 °F 68.0 °F 62% 29.97 in 7.0 mi East 9.2 mph - N/A   Partly Cloudy
3:47 PM 82.4 °F 85.4 °F 68.0 °F 62% 29.99 in 7.0 mi East 6.9 mph - N/A   Scattered Clouds
4:45 PM 78.8 °F - 66.2 °F 65% 30.00 in 7.0 mi East 5.8 mph - N/A   Scattered Clouds
5:43 PM 77.0 °F - 68.0 °F 74% 29.95 in 7.0 mi ENE 3.5 mph - N/A   Mostly Cloudy
6:45 PM 75.2 °F - 68.0 °F 78% 30.05 in 7.0 mi East 4.6 mph - N/A   Mostly Cloudy
7:45 PM 75.2 °F - 68.0 °F 78% 30.06 in 7.0 mi East 2.3 mph - N/A   Scattered Clouds
8:46 PM 71.6 °F - 68.0 °F 88% 30.02 in 7.0 mi NE 2.3 mph - N/A   Scattered Clouds
9:43 PM 71.6 °F - 68.0 °F 88% 30.10 in 7.0 mi NNW 2.3 mph - N/A   Scattered Clouds
10:43 PM 69.8 °F - 66.2 °F 88% 30.10 in 7.0 mi West 4.6 mph - N/A   Scattered Clouds